Regional Weather Roundup
Issued by NWS

Home | Current Version | Previous Version | Graphics & Text | Print | Product List | Glossary On
Versions: 1 2 3 4 5 6 7 8 9 10 11 12 13 14 15 16 17 18 19 20 21 22 23 24 25 26 27 28 29 30 31 32 33 34 35 36 37 38 39 40 41 42 43 44 45 46 47 48 49 50
000
ASUS45 KBOU 260607
RWRCO

WEATHER ROUNDUP FOR COLORADO
NATIONAL WEATHER SERVICE DENVER/BOULDER CO
1200 AM MDT WED APR 26 2017

NOTE: "FAIR" INDICATES FEW OR NO CLOUDS BELOW 12000 FEET WITH NO
SIGNIFICANT WEATHER AND/OR OBSTRUCTIONS TO VISIBILITY.

COZ001>005-013-030-031-260700-
...NORTHWEST COLORADO...

CITY           SKY/WX    TMP DP  RH WIND       PRES   REMARKS
CRAIG          FAIR      32  27  81 SW6       29.89R WCI  26
HAYDEN         FAIR      32  25  74 SW6       29.87R WCI  26
MEEKER         CLOUDY    36  35  96 CALM      29.89R
MOUNT WERNER   NOT AVBL
STEAMBOAT SPGS CLOUDY    32  32  99 CALM      29.86S
WALDEN           N/A     27  23  86 NE8       29.87R WCI  18
$$

COZ006>008-011-260700-
...WEST CENTRAL VALLEYS...

CITY           SKY/WX    TMP DP  RH WIND       PRES   REMARKS
GRAND JUNCTION FAIR      39  37  92 N8        29.89S
MONTROSE       FAIR      36  32  85 SE7       29.92R
EAGLE          FAIR      35  32  88 CALM      29.88S
RIFLE          CLOUDY    41  34  76 W7        29.88R
DELTA          CLOUDY    41  37  84 NE6       29.89R
NUCLA          CLOUDY    36  32  87 E7        29.95R
$$

COZ017>023-064>068-260700-
...SOUTHWEST COLORADO...

CITY           SKY/WX    TMP DP  RH WIND       PRES   REMARKS
DURANGO        FAIR      40  17  39 NW17      29.79S
CORTEZ         FAIR      33  28  81 NE5       29.89R WCI  29
PAGOSA SPRINGS FAIR      34  22  61 SE3       29.82R
TELLURIDE      MOCLDY    28  27  96 SW5       29.93S WCI  22
WOLF CREEK PAS LGT SNOW  18  14  86 NW14G23   29.89R WCI   4
$$

COZ009-010-012-014-032>034-037-058>063-260700-
...CENTRAL COLORADO...

CITY           SKY/WX    TMP DP  RH WIND       PRES   REMARKS
ASPEN          CLOUDY    31  30  96 N5        29.86S WCI  26
BUENA VISTA    FAIR      36  19  51 NW10      29.81S
COPPER MTN     LGT SNOW  23  18  80 MISG      29.86S VSB 1
BERTHOUD PASS  CLOUDY    14   3  62 NW32G45   29.80F WCI  -7
COTTONWOOD PAS FAIR      32  19  59 W5        29.84R WCI  27
GUNNISON       FAIR      32  27  81 W9        29.86R WCI  24
KREMMLING      LGT SNOW  37  32  81 N8        29.86S
LEADVILLE      LGT SNOW  25  19  78 N6        29.83S WCI  18
MONARCH PASS   MOCLDY    19  18  93 W10G18    29.97R WCI   8
SALIDA         FAIR      38  27  66 N5        29.88S
SUNLIGHT       FOG      N/A N/A N/A CALM      29.95R VSB 1/4
WILKERSON PASS CLOUDY    23  19  86 NW5       29.86S WCI  17
$$

COZ069>075-260700-
...SAN LUIS VALLEY/SANGRE DE CRISTO MOUNTAINS...

CITY           SKY/WX    TMP DP  RH WIND       PRES   REMARKS
ALAMOSA        CLOUDY    34  31  88 N3        29.79S
LA VETA PASS   SNOW      27  23  86 NW6       29.91R VSB 1/2 WCI  20
SAGUACHE       FAIR      36  23  60 N15       29.81R
$$

COZ035-036-038>040-260700-
...NORTHERN COLORADO FRONT RANGE...

CITY           SKY/WX    TMP DP  RH WIND       PRES   REMARKS
DENVER INTL AP MOCLDY    31  26  82 N12       29.86R WCI  22
DMNS CITY PARK   N/A     33  26  74 NE8       29.86S WCI  26
AURORA         CLOUDY    31  29  93 NE10      29.86S WCI  23
FRONT RANGE AP FAIR      32  30  93 N9        29.86S WCI  24
ERIE MUNI ARPT CLOUDY    34  29  80 NE8       29.87S WCI  27
BOULDER MUN AP CLOUDY    34  28  80 NE6       29.86F WCI  29
CENTENNIAL     CLOUDY    33  29  85 N9        29.85S WCI  25
BROOMFIELD     CLOUDY    32  28  86 NE10      29.87S WCI  24
FORT COLLINS   FAIR      32  25  75 NE5       29.87S WCI  27
LONGMONT       CLOUDY    36  28  73 E5        29.89S HAZE
$$

COZ041-046-047-076>085-087-088-260700-
...PIKES PEAK/PALMER DIVIDE AND SOUTHERN FOOTHILLS...

CITY           SKY/WX    TMP DP  RH WIND       PRES   REMARKS
COLO. SPRINGS  CLOUDY    37  30  75 N22       29.80S
A. F. ACADEMY  CLOUDY    33  32  95 N15       29.80S WCI  23
SCHRIEVER AFB  MOCLDY    34  31  88 N16G23    29.80  WCI  24
ELLICOTT       NOT AVBL
FALCON         CLOUDY    32  30  92 N15G26    29.80S WCI  22
FORT CARSON    NOT AVBL
LIMON          MIX PCPN  36  34  92 N17       29.79S
MONUMENT HILL  CLOUDY    28  27  93 N9G18     29.83F WCI  20
TRINIDAD       LGT SNOW  33  31  92 NW10      29.76S FOG     WCI  25
$$

COZ042>045-048>051-090-091-260700-
...NORTHEAST COLORADO...

CITY           SKY/WX    TMP DP  RH WIND       PRES   REMARKS
GREELEY ARPT   FAIR      32  27  81 VRB3      29.88R
AKRON            N/A     33  31  92 N18       29.81S WCI  22
BURLINGTON     NOT AVBL
WRAY           NOT AVBL
STERLING       CLOUDY    34  32  93 N16       29.84S WCI  23
HOLYOKE        CLOUDY    36  30  80 N16G22    29.82S
FORT MORGAN    CLOUDY    34  31  90 N14       29.86R WCI  24
$$

COZ086-089-092>099-260700-
...SOUTHEAST COLORADO...

CITY           SKY/WX    TMP DP  RH WIND       PRES   REMARKS
PUEBLO         LGT RAIN  42  38  85 N9        29.80R
LA JUNTA       RAIN      43  40  89 NE12      29.75R
LAMAR          CLOUDY    45  41  86 N5        29.71S
SPRINGFIELD      N/A     42  41  96 N15       29.69F
$$



USA.gov is the U.S. government's official web portal to all federal, state and local government web resources and services.